Regional Weather Roundup
Issued by NWS Jackson, KY

Home | Current Version | Previous Version | Text Only | Print | Product List | Glossary On
Versions: 1 2 3 4 5 6 7 8 9 10 11 12 13 14 15 16 17 18 19 20 21 22 23 24 25 26 27 28 29 30 31 32 33 34 35 36 37 38 39 40 41 42 43 44 45 46 47 48 49 50
000
ASUS43 KJKL 192119
RWRJKL

EAST KENTUCKY HOURLY WEATHER ROUNDUP
NATIONAL WEATHER SERVICE JACKSON KY
500 PM EDT SAT APR 19 2014

NOTE: "FAIR" INDICATES FEW OR NO CLOUDS BELOW 12,000 FEET WITH
NO SIGNIFICANT WEATHER AND/OR OBSTRUCTIONS TO VISIBILITY.

* THESE REPORTS ARE NOT UNDER NWS QUALITY CONTROL AND MAY NOT
  REPORT WEATHER SUCH AS PRECIPITATION AND FOG.

KYZ079-080-083-085-087-088-110-112-115-119-120-192200
...EASTERN KENTUCKY...

CITY           SKY/WX    TMP DP  RH WIND       PRES   REMARKS
JACKSON        SUNNY     73  33  23 CALM      30.16F
LONDON         MOSUNNY   75  35  23 NE13G20   30.14F
SOMERSET*      SUNNY     72  34  25 NE13G22   30.15F
MONTICELLO*    MOSUNNY   73  39  29 N10       30.16F
WILLIAMSBURG*    N/A    N/A N/A N/A N12         N/A
MIDDLESBORO*   PTSUNNY   74  37  25 NE9       30.12S
HARLAN APT*    CLOUDY    70  32  24 N6        30.14S
BLACK MTN*       N/A     59  32  36 N8          N/A
PIKEVILLE APT* SUNNY     70  36  28 NE8       30.16F
BIG SANDY*     MOCLDY    72  36  27 NE5       30.16S
ASHLAND*       SUNNY     72  36  26 E8        30.17
MOREHEAD APT*  CLEAR     72  30  21 MISG      30.20F
$$

KYZ035-036-041-042-044-050-067-078-099-192200
...CENTRAL KENTUCKY...

CITY           SKY/WX    TMP DP  RH WIND       PRES   REMARKS
MT STERLING*   SUNNY     70  36  28 N9G16     30.20S
FLEMING/MASON* SUNNY     70  37  30 NE10      30.22S
DANVILLE*      SUNNY     70  41  35 NE10      30.19F
LEXINGTON      SUNNY     72  36  26 NE9G23    30.20F
FRANKFORT      SUNNY     72  35  25 E10G16    30.19F
$$

KYZ091>093-OHZ055-061-077-WVZ005-015-034-035-042-192200
...SOUTHERN OHIO/WEST VIRGINIA...

CITY           SKY/WX    TMP DP  RH WIND       PRES   REMARKS
COVINGTON      SUNNY     69  36  29 NE12      30.23F
COLUMBUS       MOSUNNY   66  32  28 NE9G20    30.27F
DAYTON         SUNNY     65  36  34 NE14      30.29F
WILMINGTON     SUNNY     64  35  34 NE14G22   30.26S
HUNTINGTON     MOSUNNY   70  32  24 NE13G21   30.18F
CHARLESTON     CLOUDY    70  36  28 NE7       30.18F
PINEVILLE*     CLOUDY    71  37  28 MISG      30.21S
BECKLEY        CLOUDY    65  33  30 N12       30.19S
BLUEFIELD      CLOUDY    66  32  28 NE8       30.19F
$$

VAZ002-007-008-TNZ017-027-036-066-071-192200
...SOUTHWEST VIRGINIA/EAST TENNESSEE...

CITY           SKY/WX    TMP DP  RH WIND       PRES   REMARKS
WISE*          CLOUDY    66  28  24 N5        30.18F
ABINGDON*      CLOUDY    67  33  27 SE13G20   30.15S
BRISTOL        CLOUDY    69  32  25 NE10G18   30.13F
KNOXVILLE      LGT RAIN  61  47  59 SE6       30.13F
OAK RIDGE      CLOUDY    69  39  33 E6        30.14S
CROSSVILLE     PTSUNNY   70  34  26 NE10G18   30.15F
NASHVILLE      MOSUNNY   77  41  27 NE15G22   30.14F
$$

...KEY TO REMARKS...
VSB - VISIBILITY IN MILES
WCI - WIND CHILL INDEX
HX  - HEAT INDEX

$$



USA.gov is the U.S. government's official web portal to all federal, state and local government web resources and services.